sat.trackr.live / text

‹ back to catalog

STARLINK-5848

NORAD 55932 · 2023-037U

PAYLOAD ACTIVE UNKNOWN

§ Identity

Operator
Country
US
Launch date
2023-03-17
Launch site
AFWTR
Launch vehicle
Mass (kg)
RCS (m²)

Purposes: comms

External: N2YO · Heavens-Above · Gunter

§ Orbital elements

Epoch: 2026-09-20T22:25:29.803008Z

Period
96.11 min
Inclination
69.9985°
Eccentricity
0.0002564
Mean motion
14.98323354 rev/d
Perigee alt
570.3 km
Apogee alt
573.9 km
Semi-major
6,950.2 km
B*
3.0530e-5
RAAN
131.9867°
Arg perigee
269.0720°
Mean anomaly
91.0145°
Rev number
19,372

§ Raw data

STARLINK-58481 55932U 23037U   26263.93437272  .00000271  00000+0  30530-4 0  99992 55932  69.9985 131.9867 0002564 269.0720  91.0145 14.98323354193724

JSON: /api/v1/satellites/55932 · /tle

For live sub-satellite position, see the globe view (requires WebGL).

§ Visibility from observer

Set your observer location to see the next 7 days of passes ≥ 10°. The values pass through the URL so the page stays shareable.

No JS? Fill the form by hand. The geolocation button needs JavaScript.